Flag for Germany Weather past 2 weeks in Lippstadt, North Rhine-Westphalia, Germany

Now
46 °F

Partly sunny.


Feels Like: 40 °F
Forecast: 43 / 51 °F
Wind: 15 mph from South

Location: Paderborn / Lippstadt

Current Time: Mar 28, 2015 at 7:16:41 PM

Latest Report: Mar 28, 2015 at 6:20 PM


Visibility: N/A

Pressure: 29.89 "Hg

Humidity: 76%

Dew point: 39 °F

Location of LippstadtLocation

Historic Weather in Lippstadt — Graph

°F

Lippstadt temperature yesterday

Maximum temperature yesterday: 43 °F (at 12:20 PM)
Minimum temperature yesterday: 39 °F (at 6:20 AM)
Average temperature yesterday: 41 °F

Past Weeks' High & Low Weather Summary

 TemperatureHumidityPressure
High59 °F (Mar 17, 3:20 PM)100% (Mar 14, 1:20 AM)30.36 "Hg (Mar 14, 1:20 AM)
Low28 °F (Mar 23, 2:50 AM)41% (Mar 25, 11:50 AM)29.62 "Hg (Mar 25, 6:20 AM)
Average41 °F83%30.10 "Hg
* Reported Mar 13 6:20 PM — Mar 28 6:20 PM, Lippstadt, Weather by CustomWeather, © 2015

Note: Actual official high and low records may vary slightly from our data, if they occured in-between our weather recording intervals... More about our weather records

Advertising

Lippstadt weather history for previous 24 hours

 ConditionsComfort  
Time TempWeatherWind HumidityBarometerVisibility
6:20 PM
Sat, Mar 28
46 °FPartly sunny.15 mph76%29.89 "HgN/A
5:50 PM46 °FPartly sunny.12 mph76%29.89 "HgN/A
5:20 PM46 °FPartly sunny.10 mph76%29.89 "HgN/A
4:50 PM46 °FDrizzle. Partly sunny.10 mph71%29.92 "HgN/A
4:20 PM46 °FScattered showers. Partly sunny.10 mph71%29.92 "HgN/A
3:50 PM46 °FScattered showers. Partly sunny.10 mph66%29.95 "HgN/A
3:20 PM48 °FDrizzle. Broken clouds.14 mph58%29.95 "Hg5 mi
2:50 PM52 °FSunny.17 mph47%29.95 "Hg10 mi
2:20 PM52 °FSunny.14 mph47%29.98 "Hg10 mi
1:50 PM52 °FPassing clouds.13 mph47%29.98 "HgN/A
1:20 PM52 °FPassing clouds.13 mph44%30.01 "HgN/A
12:50 PM50 °FPassing clouds.13 mph47%30.04 "HgN/A
12:20 PM48 °FPassing clouds.14 mph46%30.04 "HgN/A
11:50 AM46 °FScattered clouds.9 mph53%30.07 "HgN/A
11:20 AM46 °FScattered clouds.13 mph57%30.07 "HgN/A
10:50 AM46 °FScattered clouds.10 mph57%30.09 "HgN/A
10:20 AM46 °FPassing clouds.12 mph53%30.09 "HgN/A
9:50 AM45 °FSunny.9 mph61%30.12 "Hg10 mi
9:20 AM43 °FSunny.9 mph66%30.12 "Hg10 mi
8:50 AM41 °FSunny.9 mph70%30.12 "Hg10 mi
8:20 AM39 °FPassing clouds.8 mph70%30.15 "Hg5 mi
7:50 AM37 °FPassing clouds.9 mph75%30.15 "Hg5 mi
7:20 AM36 °FClear.3 mph81%30.15 "Hg5 mi
6:50 AM34 °FClear.3 mph87%30.15 "Hg5 mi
6:20 AM36 °FClear.3 mph81%30.15 "Hg5 mi
5:50 AM34 °FClear.2 mph87%30.18 "Hg10 mi
5:20 AM36 °FClear.2 mph81%30.18 "Hg10 mi
4:50 AM32 °FClear.5 mph87%30.18 "Hg10 mi
4:20 AM36 °FClear.7 mph87%30.18 "Hg10 mi
3:50 AM36 °FClear.8 mph87%30.18 "Hg10 mi
3:20 AM32 °FPassing clouds.7 mph93%30.18 "HgN/A
2:50 AM34 °FPassing clouds.7 mph93%30.18 "HgN/A
2:20 AM36 °FPartly cloudy.8 mph87%30.18 "HgN/A
1:50 AM37 °FPartly cloudy.6 mph87%30.18 "HgN/A
1:20 AM39 °FPassing clouds.5 mph81%30.18 "HgN/A
12:50 AM39 °FPartly cloudy.6 mph87%30.18 "HgN/A
12:20 AM39 °FPartly cloudy.5 mph87%30.18 "HgN/A
11:50 PM
Fri, Mar 27
39 °FPassing clouds.6 mph87%30.18 "HgN/A
11:20 PM39 °FPassing clouds.7 mph87%30.18 "HgN/A
10:50 PM39 °FPassing clouds.7 mph87%30.18 "HgN/A
10:20 PM39 °FPassing clouds.8 mph87%30.18 "HgN/A
9:50 PM39 °FPartly cloudy.12 mph87%30.15 "HgN/A
9:20 PM39 °FLight rain. Partly cloudy.7 mph87%30.15 "HgN/A
8:50 PM39 °FLight rain. Partly cloudy.8 mph81%30.15 "HgN/A
8:20 PM41 °FRain. Partly cloudy.9 mph87%30.15 "HgN/A
7:50 PM41 °FPartly cloudy.8 mph81%30.12 "HgN/A
7:20 PM41 °FPartly cloudy.9 mph81%30.12 "HgN/A
Weather by CustomWeather, © 2015

See weather overviewHow to use our weather pages